KG0HG Weather Reports


Display with metric or nautical units.
time (UTC)temp
F
wind
direction
speed
MPH
gust
MPH
rain 1hr
in
rain 24hr
in
rain mn
in
humidity
%
barometer
mb
20260506191411 57 274 4.0 6.0 0.00 0.00 0.00 35 1018.9
20260506190908 58 350 5.0 9.0 0.00 0.00 0.00 33 1019.0
20260506190404 57 35 2.0 6.0 0.00 0.00 0.00 35 1019.0
20260506185901 57 38 2.0 5.0 0.00 0.00 0.00 33 1018.9
20260506185359 57 47 1.0 9.0 0.00 0.00 0.00 36 1019.0
20260506184856 56 298 6.0 8.0 0.00 0.00 0.00 36 1019.1
20260506184352 55 92 1.0 2.0 0.00 0.00 0.00 37 1019.0
20260506183850 55 16 2.0 3.0 0.00 0.00 0.00 35 1019.2
20260506183345 56 285 5.0 8.0 0.00 0.00 0.00 36 1019.2
20260506182842 55 320 5.0 7.0 0.00 0.00 0.00 35 1019.4
20260506182339 56 40 0.0 5.0 0.00 0.00 0.00 39 1019.3
20260506181837 55 34 0.0 1.0 0.00 0.00 0.00 39 1019.2
20260506181335 55 289 4.0 5.0 0.00 0.00 0.00 37 1019.5
20260506180832 55 300 4.0 6.0 0.00 0.00 0.00 36 1019.3
20260506180327 55 62 1.0 3.0 0.00 0.00 0.00 38 1019.4
20260506175824 55 359 2.0 6.0 0.00 0.00 0.00 39 1019.5
20260506175321 55 22 3.0 8.0 0.00 0.00 0.00 36 1019.4
20260506174818 55 316 3.0 10.0 0.00 0.00 0.00 38 1019.3
20260506174315 55 285 2.0 5.0 0.00 0.00 0.00 37 1019.5
20260506173813 55 43 1.0 5.0 0.00 0.00 0.00 39 1019.5
20260506173309 55 313 5.0 7.0 0.00 0.00 0.00 38 1019.4
20260506172807 56 306 4.0 5.0 0.00 0.00 0.00 38 1019.4
20260506172306 55 43 1.0 2.0 0.00 0.00 0.00 39 1019.4
20260506171801 55 349 3.0 8.0 0.00 0.00 0.00 37 1019.5
20260506171258 55 28 2.0 6.0 0.00 0.00 0.00 37 1019.3
20260506170755 55 299 6.0 10.0 0.00 0.00 0.00 36 1019.3
20260506170251 55 47 1.0 3.0 0.00 0.00 0.00 37 1019.3
20260506165750 54 21 2.0 3.0 0.00 0.00 0.00 37 1019.5
20260506165247 55 280 5.0 8.0 0.00 0.00 0.00 39 1019.3
20260506164744 54 23 1.0 3.0 0.00 0.00 0.00 37 1019.5
20260506164241 55 282 6.0 8.0 0.00 0.00 0.00 39 1019.5
20260506163738 55 19 2.0 6.0 0.00 0.00 0.00 40 1019.2
20260506163232 55 27 1.0 2.0 0.00 0.00 0.00 43 1019.3
20260506162729 55 41 1.0 8.0 0.00 0.00 0.00 42 1019.2
20260506162227 55 56 0.0 1.0 0.00 0.00 0.00 39 1019.3
20260506161724 54 23 1.0 7.0 0.00 0.00 0.00 41 1019.3
20260506161221 54 25 2.0 7.0 0.00 0.00 0.00 40 1019.3
20260506160718 54 4 2.0 6.0 0.00 0.00 0.00 42 1019.1
20260506160215 55 352 2.0 9.0 0.00 0.00 0.00 40 1019.1
20260506155713 55 291 3.0 9.0 0.00 0.00 0.00 39 1019.0
20260506155210 56 10 3.0 7.0 0.00 0.00 0.00 41 1019.0
20260506153318 54 314 2.0 3.0 0.00 0.00 0.00 43 1018.9
20260506152815 54 62 1.0 3.0 0.00 0.00 0.00 43 1018.8
20260506152312 54 21 3.0 6.0 0.00 0.00 0.00 41 1018.9
20260506151811 54 39 1.0 5.0 0.00 0.00 0.00 46 1018.8
20260506151307 53 51 3.0 5.0 0.00 0.00 0.00 45 1018.9
20260506150804 53 26 1.0 6.0 0.00 0.00 0.00 47 1019.0
20260506150304 53 27 1.0 2.0 0.00 0.00 0.00 47 1019.1
20260506145758 53 27 1.0 7.0 0.00 0.00 0.00 49 1018.8
20260506145254 53 7 2.0 3.0 0.00 0.00 0.00 52 1018.8
20260506144752 53 324 0.0 2.0 0.00 0.00 0.00 51 1019.0
20260506144248 53 36 1.0 6.0 0.00 0.00 0.00 53 1018.9
20260506143746 53 36 1.0 2.0 0.00 0.00 0.00 52 1018.7
20260506143243 53 58 1.0 5.0 0.00 0.00 0.00 59 1018.6
20260506142742 52 38 1.0 2.0 0.00 0.00 0.00 57 1018.7
20260506142239 52 323 2.0 5.0 0.00 0.00 0.00 57 1018.6
20260506141738 52 45 0.0 2.0 0.00 0.00 0.00 58 1018.5
20260506141235 51 9 2.0 5.0 0.00 0.00 0.00 58 1018.6
20260506140732 51 302 3.0 5.0 0.00 0.00 0.00 59 1018.6
20260506140229 51 354 3.0 3.0 0.00 0.00 0.00 62 1018.5
20260506135726 51 314 2.0 5.0 0.00 0.00 0.00 61 1018.4
20260506135222 50 39 1.0 3.0 0.00 0.00 0.00 66 1018.1
20260506134720 50 348 2.0 3.0 0.00 0.00 0.00 68 1018.1
20260506134216 50 41 0.0 2.0 0.00 0.00 0.00 68 1018.4
20260506133713 50 47 0.0 2.0 0.00 0.00 0.00 72 1018.1
20260506133209 49 39 0.0 3.0 0.00 0.00 0.00 73 1018.2
20260506132707 49 39 1.0 2.0 0.00 0.00 0.00 76 1018.0
20260506132203 48 40 0.0 2.0 0.00 0.00 0.00 78 1017.8
20260506131701 49 33 1.0 3.0 0.00 0.00 0.00 78 1018.3
20260506131157 49 315 3.0 3.0 0.00 0.00 0.00 80 1017.9
20260506130654 48 27 1.0 2.0 0.00 0.00 0.00 82 1017.8
20260506130151 47 22 1.0 2.0 0.00 0.00 0.00 85 1017.8
20260506125649 48 47 0.0 0.0 0.00 0.00 0.00 88 1017.7
20260506125147 47 27 0.0 2.0 0.00 0.00 0.00 91 1017.6
20260506124645 47 73 0.0 0.0 0.00 0.00 0.00 93 1017.7
20260506124142 47 73 0.0 0.0 0.00 0.00 0.00 94 1017.7
20260506123640 46 72 0.0 0.0 0.00 0.00 0.00 94 1017.3
20260506123138 46 72 0.0 0.0 0.00 0.00 0.00 94 1017.3
20260506122635 46 72 0.0 0.0 0.00 0.00 0.00 95 1017.0
20260506122132 46 72 0.0 0.0 0.00 0.00 0.00 95 1017.2
20260506121630 46 72 0.0 0.0 0.00 0.00 0.00 94 1016.9
20260506121126 46 72 0.0 0.0 0.00 0.00 0.00 94 1016.8
20260506120624 46 72 0.0 0.0 0.00 0.00 0.00 94 1016.5
20260506120121 46 72 0.0 0.0 0.00 0.00 0.00 94 1016.8
20260506115620 46 72 0.0 0.0 0.00 0.00 0.00 94 1016.6
20260506115118 46 72 0.0 0.0 0.00 0.00 0.00 93 1016.6
20260506114614 46 73 0.0 0.0 0.00 0.00 0.00 93 1016.5
20260506114113 46 73 0.0 0.0 0.00 0.00 0.00 92 1016.5
20260506113610 46 72 0.0 0.0 0.00 0.00 0.00 91 1016.2
20260506113107 46 65 0.0 0.0 0.00 0.00 0.00 90 1016.4
20260506112604 46 64 0.0 0.0 0.00 0.00 0.00 90 1016.2
20260506112102 46 45 0.0 0.0 0.00 0.00 0.00 89 1016.7
20260506111559 47 42 0.0 0.0 0.00 0.00 0.00 88 1016.7
20260506111056 46 318 2.0 3.0 0.00 0.00 0.00 88 1016.8
20260506110554 46 21 1.0 2.0 0.00 0.00 0.00 88 1017.2
20260506110051 46 6 0.0 3.0 0.00 0.00 0.00 89 1016.9
20260506105547 46 87 0.0 0.0 0.00 0.00 0.00 89 1016.8
20260506105044 46 36 0.0 0.0 0.00 0.00 0.00 89 1016.9
20260506104542 46 34 0.0 0.0 0.00 0.00 0.00 90 1016.9
20260506104040 46 26 0.0 1.0 0.00 0.00 0.00 90 1016.7
20260506103537 46 14 1.0 5.0 0.00 0.00 0.00 91 1016.9
20260506103033 46 24 1.0 2.0 0.00 0.00 0.00 93 1017.0
20260506102532 45 69 0.0 0.0 0.00 0.00 0.00 93 1016.6
20260506102029 46 67 0.0 0.0 0.00 0.00 0.00 94 1016.4
20260506101526 45 49 0.0 0.0 0.00 0.00 0.00 94 1016.2
20260506101022 46 49 0.0 0.0 0.00 0.00 0.00 94 1015.9
20260506100521 45 32 0.0 0.0 0.00 0.00 0.00 95 1015.7
20260506100019 45 32 0.0 2.0 0.00 0.00 0.00 95 1015.5
20260506095517 45 61 0.0 1.0 0.00 0.00 0.00 96 1015.6
20260506095013 45 61 0.0 0.0 0.00 0.00 0.00 96 1015.6
20260506094511 45 61 0.0 0.0 0.00 0.00 0.00 96 1015.5
20260506094009 45 61 0.0 0.0 0.00 0.00 0.00 95 1015.5
20260506093507 45 61 0.0 0.0 0.00 0.00 0.00 95 1015.4
20260506093004 45 61 0.0 0.0 0.00 0.00 0.00 95 1015.6
20260506092502 45 61 0.0 0.0 0.00 0.00 0.00 95 1015.6
20260506091958 45 61 0.0 0.0 0.00 0.00 0.00 95 1015.6
20260506091457 45 61 0.0 0.0 0.00 0.00 0.00 95 1015.9
20260506090953 45 61 0.0 0.0 0.00 0.00 0.00 95 1015.7
20260506090451 45 61 0.0 0.0 0.00 0.00 0.00 95 1015.8
20260506085947 45 61 0.0 0.0 0.00 0.00 0.00 95 1015.6
20260506085444 45 61 0.0 0.0 0.00 0.00 0.00 95 1015.7
20260506084941 45 61 0.0 0.0 0.00 0.00 0.00 95 1015.4
20260506084438 45 61 0.0 0.0 0.00 0.00 0.00 95 1015.7
20260506083934 45 61 0.0 0.0 0.00 0.00 0.00 95 1015.5
20260506083431 46 61 0.0 0.0 0.00 0.00 0.00 95 1015.8
20260506082928 46 61 0.0 0.0 0.00 0.00 0.00 95 1015.4
20260506082425 45 61 0.0 0.0 0.00 0.00 0.00 95 1015.4
20260506081921 45 61 0.0 0.0 0.00 0.00 0.00 94 1015.1
20260506081420 45 61 0.0 0.0 0.00 0.00 0.00 94 1014.9
20260506080916 45 61 0.0 0.0 0.00 0.00 0.00 94 1014.9
20260506080413 45 61 0.0 0.0 0.00 0.00 0.00 93 1014.8
20260506073357 45 60 0.0 0.0 0.00 0.00 0.00 92 1014.6
20260506072854 45 60 0.0 0.0 0.00 0.00 0.00 91 1014.8
20260506072351 46 60 0.0 0.0 0.00 0.00 0.00 90 1014.7
20260506071849 45 60 0.0 0.0 0.00 0.00 0.00 89 1014.7
20260506071347 45 60 0.0 0.0 0.00 0.00 0.00 88 1015.1
20260506070843 45 60 0.0 0.0 0.00 0.00 0.00 87 1015.0
20260506070341 46 60 0.0 0.0 0.00 0.00 0.00 86 1015.0
20260506062318 47 46 0.0 1.0 0.00 0.00 0.00 82 1015.8
20260506061814 47 48 0.0 2.0 0.00 0.00 0.00 82 1016.0
20260506061311 47 21 1.0 3.0 0.00 0.00 0.00 80 1015.9
20260506060809 47 334 3.0 5.0 0.00 0.00 0.00 80 1015.8
20260506060307 47 30 1.0 3.0 0.00 0.00 0.00 79 1015.7
20260506051238 48 54 0.0 1.0 0.00 0.00 0.00 78 1015.3
20260506050736 48 54 1.0 1.0 0.00 0.00 0.00 78 1015.4
20260506050233 49 56 0.0 2.0 0.00 0.00 0.00 77 1015.1
20260506044724 48 27 2.0 8.0 0.00 0.76 0.76 82 1015.0
20260506044221 48 4 6.0 10.0 0.00 0.76 0.76 94 1015.0
20260506043718 48 330 0.0 3.0 0.00 0.76 0.76 98 1015.1
20260506043216 48 300 1.0 5.0 0.00 0.76 0.76 98 1014.8
20260506042715 48 58 0.0 0.0 0.00 0.76 0.76 98 1014.6
20260506042213 48 58 0.0 0.0 0.00 0.76 0.76 98 1014.2
20260506041711 48 58 0.0 0.0 0.00 0.76 0.76 98 1014.4
20260506041208 48 58 0.0 0.0 0.00 0.76 0.76 98 1014.3
20260506040705 48 58 0.0 0.0 0.00 0.76 0.76 98 1014.6
20260506040202 48 58 0.0 0.0 0.00 0.76 0.76 98 1014.3
20260506035658 48 88 0.0 0.0 0.00 0.76 0.76 98 1014.2
20260506035155 48 84 0.0 0.0 0.00 0.76 0.76 98 1014.3
20260506034652 48 87 0.0 0.0 0.00 0.76 0.76 98 1014.2
20260506034149 49 84 0.0 0.0 0.00 0.76 0.76 98 1014.1
20260506033647 49 84 0.0 0.0 0.00 0.76 0.76 98 1014.0
20260506033143 48 84 0.0 0.0 0.00 0.76 0.76 98 1013.9
20260506032641 48 84 0.0 0.0 0.00 0.76 0.76 98 1013.8
20260506032138 48 84 0.0 0.0 0.00 0.76 0.76 98 1013.5
20260506031634 48 84 0.0 0.0 0.00 0.76 0.76 98 1013.5
20260506031131 48 84 0.0 0.0 0.00 0.76 0.76 98 1013.7
20260506030630 48 85 0.0 0.0 0.00 0.76 0.76 97 1013.5
20260506030127 48 85 0.0 0.0 0.00 0.76 0.76 97 1013.5
20260506025624 48 85 0.0 0.0 0.00 0.76 0.76 97 1013.4
20260506025119 48 85 0.0 0.0 0.00 0.76 0.76 97 1013.2
20260506024618 48 85 0.0 0.0 0.00 0.76 0.76 97 1013.1
20260506024113 48 85 0.0 0.0 0.00 0.76 0.76 97 1013.3
20260506023610 48 85 0.0 0.0 0.00 0.76 0.76 97 1012.9
20260506023107 48 85 0.0 0.0 0.00 0.76 0.76 96 1013.0
20260506022604 48 85 0.0 0.0 0.00 0.76 0.76 96 1013.0
20260506022101 48 85 0.0 0.0 0.00 0.76 0.76 96 1012.9
20260506021559 48 85 0.0 0.0 0.00 0.76 0.76 96 1012.7
20260506021050 48 85 0.0 0.0 0.00 0.76 0.76 96 1012.5
20260506020548 48 85 0.0 0.0 0.00 0.76 0.76 96 1012.5
20260506020045 48 85 0.0 0.0 0.00 0.76 0.76 95 1012.5
20260506015542 48 85 0.0 0.0 0.00 0.76 0.76 95 1012.2
20260506015039 49 85 0.0 0.0 0.00 0.76 0.76 95 1012.6
20260506014537 49 85 0.0 0.0 0.00 0.76 0.76 94 1012.2
20260506014032 49 85 0.0 0.0 0.00 0.76 0.76 94 1012.6
20260506013531 49 85 0.0 0.0 0.00 0.76 0.76 94 1012.2
20260506013027 49 85 0.0 0.0 0.00 0.76 0.76 93 1012.0
20260506012523 50 85 0.0 0.0 0.00 0.76 0.76 93 1012.1
20260506012020 50 85 0.0 0.0 0.00 0.76 0.76 93 1012.4
20260506011518 50 85 0.0 0.0 0.00 0.76 0.76 92 1012.2
20260506011013 50 85 0.0 0.0 0.00 0.76 0.76 92 1012.1
20260506010508 50 85 0.0 0.0 0.00 0.76 0.76 91 1012.3
20260506010004 50 85 0.0 0.0 0.00 0.76 0.76 91 1012.2
20260506005501 50 85 0.0 0.0 0.00 0.76 0.76 90 1012.2
20260506004956 50 85 0.0 0.0 0.00 0.76 0.76 90 1012.1
20260506004454 51 85 0.0 0.0 0.00 0.76 0.76 90 1012.3
20260506003950 51 85 0.0 0.0 0.00 0.76 0.76 89 1012.4
20260506003447 51 85 0.0 0.0 0.00 0.76 0.76 89 1012.4
20260506002943 51 85 0.0 0.0 0.00 0.76 0.76 88 1012.0
20260506002439 51 85 0.0 0.0 0.00 0.76 0.76 87 1012.0
20260506001935 51 85 0.0 0.0 0.00 0.76 0.76 86 1012.0
20260506001432 51 85 0.0 0.0 0.00 0.76 0.76 86 1011.6
20260506000929 51 85 0.0 0.0 0.00 0.76 0.76 86 1011.9
20260506000427 51 85 0.0 0.0 0.00 0.76 0.76 86 1011.7
20260505235923 51 85 0.0 0.0 0.00 0.76 0.76 86 1011.5
20260505235422 51 85 0.0 0.0 0.00 0.76 0.76 86 1011.4
20260505234918 51 85 0.0 0.0 0.00 0.76 0.76 87 1012.0
20260505234416 51 85 0.0 0.0 0.00 0.76 0.76 87 1011.9
20260505233912 51 85 0.0 0.0 0.00 0.76 0.76 87 1011.6
20260505233410 50 85 0.0 0.0 0.00 0.76 0.76 86 1012.0
20260505232907 50 85 0.0 0.0 0.00 0.76 0.76 86 1012.3
20260505232405 51 85 0.0 0.0 0.00 0.76 0.76 86 1011.9
20260505231901 51 85 0.0 0.0 0.00 0.76 0.76 86 1012.2
20260505231359 51 85 0.0 0.0 0.00 0.76 0.76 86 1012.1
20260505230857 51 85 0.0 0.0 0.00 0.76 0.76 85 1012.2
20260505230354 50 85 0.0 0.0 0.00 0.76 0.76 85 1012.0
20260505225851 50 85 0.0 0.0 0.00 0.76 0.76 84 1011.9
20260505225348 51 84 0.0 0.0 0.00 0.76 0.76 84 1012.0
20260505224843 51 76 0.0 0.0 0.00 0.76 0.76 84 1011.7
20260505224341 51 73 0.0 0.0 0.00 0.76 0.76 85 1011.9
20260505223838 51 42 0.0 0.0 0.00 0.76 0.76 85 1012.1
20260505223335 51 41 0.0 0.0 0.00 0.76 0.76 84 1011.7
20260505222831 52 40 0.0 0.0 0.00 0.76 0.76 86 1012.0
20260505222327 51 40 0.0 0.0 0.00 0.76 0.76 86 1012.0
20260505221824 51 40 0.0 0.0 0.00 0.76 0.76 84 1012.3
20260505221321 51 39 0.0 0.0 0.00 0.76 0.76 86 1012.0
20260505220818 51 32 0.0 0.0 0.00 0.76 0.76 86 1012.0
20260505220315 50 32 0.0 0.0 0.00 0.76 0.76 86 1011.6
20260505215813 50 31 0.0 0.0 0.00 0.76 0.76 85 1011.9
20260505215311 51 16 1.0 2.0 0.00 0.76 0.76 84 1012.0
20260505214808 50 29 0.0 0.0 0.00 0.76 0.76 84 1012.0
20260505214306 50 27 0.0 2.0 0.00 0.76 0.76 84 1011.9
20260505213803 50 32 2.0 2.0 0.00 0.76 0.76 85 1011.9
20260505213301 49 35 0.0 3.0 0.00 0.76 0.76 86 1012.2
20260505212755 49 73 0.0 0.0 0.00 0.76 0.76 88 1011.9
20260505212253 50 74 0.0 2.0 0.00 0.76 0.76 89 1012.2
20260505211750 50 43 0.0 0.0 0.00 0.76 0.76 88 1012.4
20260505211248 49 38 0.0 1.0 0.00 0.76 0.76 88 1012.2
20260505210743 49 39 0.0 1.0 0.00 0.76 0.76 88 1012.3
20260505210241 49 39 1.0 2.0 0.00 0.76 0.76 88 1012.3
20260505205738 49 39 1.0 2.0 0.00 0.76 0.76 89 1012.3
20260505205236 48 39 0.0 0.0 0.00 0.76 0.76 89 1012.2
20260505204732 49 39 1.0 2.0 0.00 0.76 0.76 90 1012.4
20260505204230 49 43 0.0 0.0 0.00 0.76 0.76 91 1012.5
20260505203727 48 43 0.0 0.0 0.00 0.76 0.76 91 1012.5
20260505203224 48 43 0.0 0.0 0.00 0.76 0.76 91 1012.5
20260505202720 48 43 1.0 1.0 0.00 0.76 0.76 91 1012.7
20260505202216 48 37 1.0 2.0 0.00 0.76 0.76 92 1012.5
20260505201713 48 48 1.0 2.0 0.00 0.76 0.76 92 1012.3
20260505201211 48 89 0.0 1.0 0.00 0.76 0.76 92 1012.4
20260505200708 48 89 0.0 1.0 0.00 0.76 0.76 91 1012.1
20260505200205 48 89 0.0 1.0 0.00 0.76 0.76 91 1012.2
20260505195701 48 98 0.0 0.0 0.00 0.76 0.76 91 1012.2
20260505195158 48 100 0.0 0.0 0.00 0.76 0.76 91 1012.3
20260505194655 48 100 0.0 0.0 0.00 0.76 0.76 91 1012.5
20260505194151 47 90 0.0 0.0 0.00 0.76 0.76 92 1012.5
20260505193648 48 89 0.0 0.0 0.00 0.76 0.76 92 1012.5
20260505193145 48 89 0.0 0.0 0.00 0.76 0.76 93 1012.3
20260505192644 48 89 0.0 0.0 0.00 0.76 0.76 93 1012.4
20260505192141 47 111 0.0 0.0 0.00 0.76 0.76 93 1012.4